This demonstration page uses our WeatherBlox Daily Observations layout. Learn more.

Left ArrowRight Arrow

39.92423, -83.80882

Hourly Observations for September 19, 2015

Temp ( °F °C ) Dew Point ( °F °C ) Humidity (%) Winds ( mph kmh ) Pressure ( in mb ) Visibility ( mi km ) Precip ( " mm )
12:56 am 00:56 Partly Cloudy 72 22.2 64 17.7 76 76 SSW 6 9 29.9 1013 10 16.0934 0 0
1:56 am 01:56 Clear 72 22.2 64 17.7 76 76 SSW 8 13 29.88 1012 10 16.0934 0 0
2:56 am 02:56 Clear 71 21.6 63 17.2 76 76 SSW 7 11 29.86 1011 10 16.0934 0 0
3:56 am 03:56 Clear 70 21.1 63 17.2 79 79 S 6 9 29.85 1011 10 16.0934 0 0
4:56 am 04:56 Clear 70 21.1 63 17.2 79 79 SSW 8 13 29.84 1011 10 16.0934 0 0
5:56 am 05:56 Clear 69 20.5 63 17.2 81 81 SSW 8 13 29.84 1010 10 16.0934 0 0
6:56 am 06:56 Clear 69 20.5 63 17.2 81 81 SSW 8 13 29.85 1011 10 16.0934 0 0
7:56 am 07:56 Sunny 69 20.5 62 16.6 78 78 SSW 7 11 29.85 1011 10 16.0934 0 0
8:56 am 08:56 Sunny 72 22.2 62 16.6 71 71 SSW 10 17 29.84 1011 10 16.0934 0 0
9:56 am 09:56 Mostly Cloudy 75 23.8 63 17.2 67 67 SW 12 19 29.87 1011 10 16.0934 0 0
10:56 am 10:56 Mostly Sunny 75 23.8 65 18.3 71 71 WSW 12 19 29.87 1012 10 16.0934 0 0
11:36 am 11:36 Mostly Cloudy 73 23 66 19 78 78 SW 13 20 29.88 1012 10 16.0934 0 0.0254
11:56 am 11:56 Cloudy 73 22.7 66 18.8 79 79 SW 10 17 29.88 1012 10 16.0934 0 0.0254
12:23 pm 12:23 Mostly Cloudy 75 24 66 19 74 74 SW 14 22 29.83 1010 10 16.0934 0 0
12:41 pm 12:41 Mostly Cloudy 75 24 66 19 74 74 SW 17 28 29.88 1012 10 16.0934 0 0
12:56 pm 12:56 Cloudy 75 23.8 67 19.4 76 76 SW 13 20 29.88 1012 10 16.0934 0 0
1:42 pm 13:42 Cloudy with Mist and Fog 72 22 68 20 88 88 WSW 10 17 29.88 1012 1.75 2.816345 0 0
1:49 pm 13:49 Cloudy with Mist and Fog 72 22 70 21 94 94 WSW 10 17 29.88 1012 1 1.60934 0 0
1:56 pm 13:56 Cloudy with Light Rain 70 21.1 68 20 93 93 WNW 20 31 29.9 1013 1 1.60934 0.01 0.254
2:00 pm 14:00 Cloudy with Light Rain 70 21 66 19 88 88 NW 15 24 29.91 1013 1.5 2.41401 0 0.0254
2:03 pm 14:03 Cloudy with Light Rain 68 20 66 19 94 94 NW 18 30 29.91 1013 2 3.21868 0 0.0254
2:10 pm 14:10 Cloudy with Light Rain 66 19 64 18 94 94 WNW 16 26 29.91 1013 1.75 2.816345 0.01 0.254
2:20 pm 14:20 Cloudy with Light Rain 64 18 64 18 100 100 WNW 14 22 29.91 1013 1.25 2.011675 0.01 0.254
2:56 pm 14:56 Cloudy with Mist and Fog 65 18.3 65 18.3 100 100 WNW 12 19 29.93 1013 4 6.43736 0.02 0.508
3:02 pm 15:02 Mostly Cloudy 66 19 64 18 94 94 WNW 15 24 29.91 1013 10 16.0934 0 0
3:44 pm 15:44 Mostly Cloudy 70 21 63 17 78 78 WNW 14 22 29.94 1014 10 16.0934 0 0
3:56 pm 15:56 Mostly Cloudy 70 21.1 62 16.6 76 76 WNW 14 22 29.93 1014 10 16.0934 0 0
4:56 pm 16:56 Mostly Cloudy 74 23.3 59 15 60 60 WNW 12 19 29.93 1014 10 16.0934 0 0
5:56 pm 17:56 Mostly Sunny 74 23.3 56 13.3 54 54 NW 14 22 29.95 1014 10 16.0934 0 0
6:56 pm 18:56 Mostly Sunny 71 21.6 55 12.7 57 57 NW 12 19 29.96 1015 10 16.0934 0 0
7:56 pm 19:56 Mostly Clear 65 18.3 54 12.2 68 68 NW 6 9 29.98 1015 10 16.0934 0 0
8:56 pm 20:56 Mostly Clear 61 16.1 54 12.2 78 78 NNW 7 11 30.02 1017 10 16.0934 0 0
9:56 pm 21:56 Clear 60 15.5 53 11.6 78 78 NNW 6 9 30.04 1017 10 16.0934 0 0
10:56 pm 22:56 Clear 58 14.4 52 11.1 81 81 NNW 6 9 30.06 1018 10 16.0934 0 0
11:56 pm 23:56 Clear 56 13.3 52 11.1 87 87 N 5 7 30.07 1018 10 16.0934 0 0

Powered by AerisWeather